Miscellaneous Local Product
Issued by NWS Hastings, NE

Home | Current Version | Previous Version | Text Only | Print | Product List | Glossary Off
Versions: 1 2 3 4 5 6 7 8 9 10 11 12 13 14 15 16 17 18 19 20 21 22 23 24 25 26 27 28 29 30 31 32 33 34 35 36 37 38 39 40 41 42 43 44 45 46 47 48 49 50

000
AXUS43 KGID 231402
MISGRI

GID CWA HOURLY WEATHER ROUNDUP
NATIONAL WEATHER SERVICE HASTINGS NE
900 AM CDT SAT MAY 23 2015

NOTE: "FAIR" INDICATES FEW OR NO CLOUDS BELOW 12,000 FEET WITH NO
SIGNIFICANT WEATHER AND/OR OBSTRUCTIONS TO VISIBILITY.

...SOUTH CENTRAL NEBRASKA...

CITY           SKY/WX    TMP DP  RH WIND       PRES   REMARKS
GRAND ISLAND   CLOUDY    54  51  90 SE12      30.15R
HASTINGS       CLOUDY    53  52  96 S12G21    30.12S
KEARNEY        CLOUDY    54  52  94 SE8       30.12F
ORD            CLOUDY    53  50  89 S10       30.15R
YORK           CLOUDY    55  54  94 S13       30.16R
AURORA         CLOUDY    55  53  94 SE17      30.14R
LEXINGTON      CLOUDY    55  54  97 SE9       30.11R
HOLDREGE       CLOUDY    53  52  96 SE13G18   30.09S FOG
HEBRON         CLOUDY    55  51  86 SE8       30.17R

...NEBRASKA PANHANDLE...

CITY           SKY/WX    TMP DP  RH WIND       PRES   REMARKS
CHADRON        CLOUDY    52  47  83 E10       30.04S
ALLIANCE       CLOUDY    50  50 100 SE9       30.03F
SCOTTSBLUFF    CLOUDY    48  48 100 SE9       30.03R FOG
SIDNEY         FOG       50  50 100 SE7       30.03F VSB 3/4

...WESTERN AND NORTH CENTRAL NEBRASKA...

CITY           SKY/WX    TMP DP  RH WIND       PRES   REMARKS
VALENTINE      FOG       51  51 100 E7        30.10R VSB 1
AINSWORTH      CLOUDY    54  54 100 S8        30.10R FOG
ONEILL         CLOUDY    55  51  88 SE8       30.14S
BROKEN BOW       N/A     53  52  96 SE10      30.12R FOG
IMPERIAL       CLOUDY    53  51  93 SE16G23   30.03F FOG
NORTH PLATTE   CLOUDY    53  52  96 SE7       30.07S
MCCOOK         CLOUDY    54  53  97 SE9G18    30.05S

...EASTERN NEBRASKA...

CITY           SKY/WX    TMP DP  RH WIND       PRES   REMARKS
NORFOLK        CLOUDY    56  52  86 SE8       30.16R
SO SIOUX CITY  CLOUDY    60  51  72 S9        30.18F
TEKAMAH        CLOUDY    61  52  72 SE13      30.18F
COLUMBUS       CLOUDY    55  46  71 SE9       30.20R
ALBION         PTSUNNY   55  50  83 SE12G18   30.15R
OMAHA EPPLEY   PTSUNNY   61  54  77 SE13      30.20F
OFFUTT AFB     PTSUNNY   59  54  83 SE9       30.20R
MILLARD        CLOUDY    58  55  88 NE6       30.18F
LINCOLN        CLOUDY    58  53  84 SE10      30.20R
NEBRASKA CITY  CLOUDY    56  55  98 SE7       30.19F
BEATRICE       CLOUDY    56  53  89 SE9       30.18R
FALLS CITY     CLOUDY    58  56  93 E10       30.20S

...NORTHERN KANSAS...

CITY           SKY/WX    TMP DP  RH WIND       PRES   REMARKS
GOODLAND       FOG       52  52 100 SE17G28   30.05S VSB 1
HILL CITY      CLOUDY    55  53  93 SE9G21    30.08S
NORTON         CLOUDY    54  50  87 SE16      30.07R
PHILLIPSBURG   CLOUDY    57  57 100 SE12      30.10R
SMITH CENTER   CLOUDY    52  52 100 SE14      30.12R
HAYS           CLOUDY    55  48  76 SE13      30.12S
RUSSELL        CLOUDY    56  55  97 SE13      30.12R
CONCORDIA      CLOUDY    56  53  90 SE10      30.16S
SALINA         CLOUDY    60  55  83 S8        30.17R
TOPEKA         CLOUDY    61  54  77 SE8       30.20R



USA.gov is the U.S. government's official web portal to all federal, state and local government web resources and services.